Regional Weather Roundup
Issued by NWS

Home | Current Version | Previous Version | Text Only | Print | Product List | Glossary On
Versions: 1 2 3 4 5 6 7 8 9 10 11 12 13 14 15 16 17 18 19 20 21 22 23 24 25 26 27 28 29 30 31 32 33 34 35 36 37 38 39 40 41 42 43 44 45 46 47 48 49 50
000
ASUS44 KFWD 261915
RWRTX
NORTH TEXAS HOURLY WEATHER ROUNDUP
NATIONAL WEATHER SERVICE FORT WORTH TX
100 PM CST MON JAN 26 2015

NOTE: "FAIR" INDICATES FEW OR NO CLOUDS BELOW 12,000 FEET WITH NO
SIGNIFICANT WEATHER AND/OR OBSTRUCTIONS TO VISIBILITY.

TXZ118-119-262000-
DALLAS/FORT WORTH METROPLEX

CITY           SKY/WX    TMP DP  RH WIND       PRES   REMARKS
DFW AIRPORT    MOSUNNY   65  33  30 W10       30.15F
DALLAS LOVE    MOSUNNY   63  33  32 SW7       30.15F
FTW MEACHAM    SUNNY     66  38  35 SW9       30.15F
DAL-EXECUTIVE  SUNNY     66  33  29 SW7       30.14F
FTW-ALLIANCE   MOSUNNY   66  37  34 W7        30.15F
FTW-SPINKS     SUNNY     64  36  34 W7        30.18F
ARLINGTON      SUNNY     67  32  27 SW9       30.16F
GRAND PRAIRIE  SUNNY     61  34  36 SW7       30.17F
ADDISON        SUNNY     63  30  29 SW12      30.15F
MESQUITE       SUNNY     63  34  34 SW9       30.16F
LANCASTER      SUNNY     62  33  32 SW10      30.18F
$$

TXZ091>094-102>105-117-120-121-131>134-262000-
NORTH CENTRAL TEXAS

CITY           SKY/WX    TMP DP  RH WIND       PRES   REMARKS
SHRMAN/DENISON SUNNY     63  40  43 SW12      30.13F
GAINESVILLE    SUNNY     67  37  33 SW7       30.13F
BOWIE          SUNNY     68  36  30 SW8       30.13F
BRIDGEPORT     SUNNY     69  40  35 W7        30.17F
DECATUR        SUNNY     65  35  33 W10       30.14F
DENTON         SUNNY     64  37  36 SW10      30.14F
MCKINNEY       SUNNY     63  33  32 SW9       30.14F
GREENVILLE     SUNNY     63  32  31 SW9       30.14F
ROCKWALL       SUNNY     62  33  33 SW16      30.14F
TERRELL        SUNNY     62  37  39 SW14      30.15F
WAXAHACHIE     SUNNY     63  37  37 SW7       30.18F
CLEBURNE       SUNNY     64  36  34 W7        30.18F
GRANBURY       SUNNY     68  36  31 W9        30.18F
$$

TXZ083>090-098>101-113>116-127>130-139>142-154-155-262000-
WESTERN NORTH TEXAS

CITY           SKY/WX    TMP DP  RH WIND       PRES   REMARKS
WICHITA FALLS  SUNNY     66  38  35 SW15      30.13F
WF-KICKAPOO    SUNNY    N/A N/A N/A W13G21    30.15F
VERNON         SUNNY     74  24  15 W16       30.14F
ABILENE        SUNNY     69  33  26 W13       30.22F
ABILENE-DYESS  SUNNY     67  36  32 W10       30.21F
BRECKENRIDGE   SUNNY     71  32  23 W9        30.18F
GRAHAM         SUNNY     66  38  35 SW10      30.16F
MINERAL WELLS  SUNNY     67  35  30 W12       30.15F
STEPHENVILLE   SUNNY     68  32  26 W7        30.22F
COMANCHE       SUNNY     69  34  27 W12G18    30.21F
BROWNWOOD      SUNNY     70  32  24 W15G21    30.22F
COLEMAN        MOSUNNY   68  38  33 W10       30.23F
BRADY          SUNNY     66  34  30 W12       30.24F
$$

TXZ143>147-156>162-174-175-262000-
CENTRAL TEXAS

CITY           SKY/WX    TMP DP  RH WIND       PRES   REMARKS
WACO           SUNNY     67  36  31 W9        30.19F
WACO-TSTC      SUNNY     66  34  30 SW9       30.20
WACO-MCGREGOR  SUNNY     66  41  39 W13       30.20F
HILLSBORO      SUNNY     64  35  34 SW9       30.18F
CORSICANA      SUNNY     63  35  35 SW9       30.19F
MEXIA          SUNNY     61  35  38 SW9       30.19F
HEARNE         SUNNY     62  35  37 W6        30.23F
CAMERON        SUNNY     66  36  33 W7        30.21F
TEMPLE         SUNNY     70  36  28 MISG        N/A
KILLEEN        MOSUNNY   68  31  25 NW13G23   30.20F
KILLEEN-SKYLRK MOSUNNY   70  36  28 W10G17    30.19F
FORT HOOD      MOSUNNY   69  31  24 MISG      30.19F
GATESVILLE     SUNNY     70  32  24 NW9G20    30.21F
HAMILTON       SUNNY     70  32  24 W10G17    30.21F
LAMPASAS       MOSUNNY   68  35  29 W10       30.21F
$$

TXZ095>097-106>112-122>126-135>138-148>153-164>167-262000-
EAST TEXAS

CITY           SKY/WX    TMP DP  RH WIND       PRES   REMARKS
PARIS          SUNNY     59  37  44 W7        30.12F
SULPHUR SPRNGS SUNNY     62  33  33 SW10      30.15F
MOUNT PLEASANT SUNNY     60  33  36 SW6       30.15F
GILMER         SUNNY     58  31  35 CALM      30.14F
MINEOLA        SUNNY     61  28  29 W5        30.16F
TYLER          SUNNY     62  33  33 S8        30.15F
LONGVIEW       SUNNY     60  32  34 CALM      30.14F
MARSHALL       SUNNY     60  32  35 N6        30.16F
ATHENS         SUNNY     61  34  36 SW8       30.16F
PALESTINE      SUNNY     63  32  31 W6        30.20F
HENDERSON      SUNNY     61  32  33 W6        30.16F
NACOGDOCHES    SUNNY     61  32  33 NW6       30.17F
LUFKIN         SUNNY     65  33  30 VRB7G17   30.17F
$$

SUPPLEMENTAL OBSERVATIONS (CENTRAL)

CITY           SKY/WX    TMP DP  RH WIND       PRES   REMARKS
LAKE TEXOMA      N/A     63  34  34 W14         N/A
PAT MAYSE LAKE   N/A     57  34  41 S5          N/A
GREENVILLE       N/A     63  34  34 SW13        N/A
CEDAR HILL       N/A     66  34  30 SW7         N/A
PALESTINE        N/A     66  32  28 W3          N/A
MCGREGOR         N/A     70  36  28 W5G15       N/A
TEMPLE           N/A     70  36  28 W8G16       N/A
$$

SUPPLEMENTAL OBSERVATIONS (WEST)

CITY           SKY/WX    TMP DP  RH WIND       PRES   REMARKS
MILLERS CREEK    N/A     66  41  39 SW12        N/A
POSSUM KINGDOM   N/A     70  32  24 W7          N/A
GRANBURY         N/A     68  34  28 W9          N/A
HAMBY            N/A     68  39  34 W14         N/A
IVIE RESERVOIR   N/A     64  36  34 W9          N/A
COLORADO BEND    N/A     70  32  24 NW9         N/A
$$

SUPPLEMENTAL OBSERVATIONS (EAST)

CITY           SKY/WX    TMP DP  RH WIND       PRES   REMARKS
CLARKSVILLE      N/A     63  34  34 W3          N/A
TEXARKANA        N/A     61  32  33 NW3         N/A
LINDEN           N/A     63  34  34 W3          N/A
CADDO LAKE       N/A     63  32  31 NW5         N/A
GILMER           N/A     63  32  31 NW1         N/A
HENDERSON        N/A     63  32  31 SW7         N/A
LUFKIN           N/A     63  32  31 MISG        N/A
N SABINE NF      N/A     61  34  36 MISG        N/A
S SABINE NF      N/A     61  32  33 N6          N/A
$$

SUPPLEMENTAL OBSERVATIONS ARE A COLLECTION OF AUTOMATED INSTRUMENTS
THAT ARE MAINTAINED BY A VARIETY OF FEDERAL AND STATE AGENCIES.
CERTAIN ELEMENTS...SUCH AS HUMIDITY VALUES AND SUSTAINED WIND
SPEEDS...MAY BE APPROXIMATED.



USA.gov is the U.S. government's official web portal to all federal, state and local government web resources and services.